sat.trackr.live / text

‹ back to catalog

STARLINK-11295 [DTC]

NORAD 61536 · 2024-184E

PAYLOAD ACTIVE UNKNOWN

§ Identity

Operator
Country
US
Launch date
2024-10-15
Launch site
AFWTR
Launch vehicle
Mass (kg)
RCS (m²)

Purposes: comms

External: N2YO · Heavens-Above · Gunter

§ Orbital elements

Epoch: 2026-09-21T12:08:28.042368Z

Period
91.74 min
Inclination
53.1601°
Eccentricity
0.0001171
Mean motion
15.69708930 rev/d
Perigee alt
358.9 km
Apogee alt
360.5 km
Semi-major
6,737.9 km
B*
6.6479e-6
RAAN
350.8776°
Arg perigee
82.9652°
Mean anomaly
277.1500°
Rev number
11,117

§ Raw data

STARLINK-11295 [DTC]1 61536U 24184E   26264.50588012  .00000217  00000+0  66479-5 0  99952 61536  53.1601 350.8776 0001171  82.9652 277.1500 15.69708930111178

JSON: /api/v1/satellites/61536 · /tle

For live sub-satellite position, see the globe view (requires WebGL).

§ Visibility from observer

Set your observer location to see the next 7 days of passes ≥ 10°. The values pass through the URL so the page stays shareable.

No JS? Fill the form by hand. The geolocation button needs JavaScript.